TimeCDT,TemperatureF,Dew PointF,Humidity,Sea Level PressureIn,VisibilityMPH,Wind Direction,Wind SpeedMPH,Gust SpeedMPH,PrecipitationIn,Events,Conditions,WindDirDegrees,DateUTC
12:53 AM,28.9,28.0,96,30.05,4.0,WSW,5.8,-,N/A,,Clear,250,2013-03-15 05:53:00
1:53 AM,30.0,28.0,92,30.03,5.0,Calm,Calm,-,N/A,,Clear,0,2013-03-15 06:53:00
2:53 AM,30.0,27.0,88,30.02,6.0,SW,3.5,-,N/A,,Clear,230,2013-03-15 07:53:00
3:53 AM,30.0,27.0,88,29.98,6.0,Calm,Calm,-,N/A,,Clear,0,2013-03-15 08:53:00
4:53 AM,30.0,28.0,92,29.97,6.0,WSW,3.5,-,N/A,,Clear,250,2013-03-15 09:53:00
5:53 AM,30.0,28.0,92,29.97,4.0,Calm,Calm,-,N/A,,Clear,0,2013-03-15 10:53:00
6:53 AM,30.9,28.9,92,29.98,4.0,North,4.6,-,N/A,,Mostly Cloudy,360,2013-03-15 11:53:00
7:51 AM,30.2,30.2,100,29.91,2.5,East,3.5,-,N/A,,Clear,80,2013-03-15 12:51:00
7:53 AM,30.9,30.0,96,29.94,2.5,East,3.5,-,N/A,,Clear,80,2013-03-15 12:53:00
8:02 AM,32.0,30.2,93,29.90,3.0,SSE,3.5,-,N/A,,Scattered Clouds,150,2013-03-15 13:02:00
8:16 AM,32.0,30.2,93,29.90,2.5,SSE,4.6,-,N/A,,Mostly Cloudy,160,2013-03-15 13:16:00
8:25 AM,32.0,30.2,93,29.90,3.0,South,3.5,-,N/A,,Mostly Cloudy,170,2013-03-15 13:25:00
8:44 AM,32.0,30.2,93,29.89,2.5,Calm,Calm,-,N/A,,Partly Cloudy,0,2013-03-15 13:44:00
8:53 AM,32.0,30.0,92,29.92,3.0,Calm,Calm,-,N/A,,Partly Cloudy,0,2013-03-15 13:53:00
9:04 AM,32.0,30.2,93,29.89,2.5,South,4.6,-,N/A,,Mostly Cloudy,180,2013-03-15 14:04:00
9:25 AM,33.8,30.2,87,29.88,3.0,SSE,5.8,-,N/A,,Overcast,160,2013-03-15 14:25:00
9:53 AM,34.0,30.9,89,29.90,3.0,SSE,5.8,-,N/A,,Overcast,150,2013-03-15 14:53:00
10:53 AM,36.0,33.1,89,29.87,3.0,ESE,6.9,-,N/A,,Overcast,110,2013-03-15 15:53:00
11:53 AM,39.0,35.1,86,29.86,4.0,East,6.9,-,N/A,,Mostly Cloudy,100,2013-03-15 16:53:00
12:53 PM,39.9,37.0,89,29.86,4.0,East,4.6,-,N/A,,Partly Cloudy,80,2013-03-15 17:53:00
1:53 PM,43.0,37.9,82,29.81,6.0,East,10.4,-,N/A,,Haze,90,2013-03-15 18:53:00
2:53 PM,44.1,39.0,82,29.75,6.0,ESE,15.0,-,N/A,,Haze,110,2013-03-15 19:53:00
3:53 PM,45.0,39.0,80,29.76,8.0,East,8.1,-,N/A,,Clear,90,2013-03-15 20:53:00
4:53 PM,46.0,39.9,79,29.78,7.0,ENE,9.2,-,N/A,,Clear,70,2013-03-15 21:53:00
5:53 PM,39.9,37.9,93,29.76,3.0,NE,9.2,-,N/A,,Clear,50,2013-03-15 22:53:00
6:53 PM,37.9,36.0,93,29.77,4.0,NE,9.2,-,N/A,,Clear,40,2013-03-15 23:53:00
7:53 PM,37.0,34.0,89,29.75,6.0,East,9.2,-,N/A,,Clear,80,2013-03-16 00:53:00
8:53 PM,35.1,34.0,96,29.75,5.0,East,4.6,-,N/A,,Clear,90,2013-03-16 01:53:00
9:53 PM,35.1,33.1,92,29.78,4.0,North,4.6,-,N/A,,Clear,10,2013-03-16 02:53:00
10:53 PM,34.0,32.0,92,29.80,3.0,North,8.1,-,N/A,,Partly Cloudy,360,2013-03-16 03:53:00
11:41 PM,33.8,32.0,93,29.78,3.0,North,11.5,-,N/A,,Mostly Cloudy,350,2013-03-16 04:41:00
11:53 PM,34.0,32.0,92,29.81,3.0,North,12.7,-,N/A,,Overcast,350,2013-03-16 04:53:00